星链-4012 (STARLINK-4012 )

导读 | 豆包AI

STARLINK-4012是美国SpaceX公司星链(Starlink)星座的成员卫星,于2022年5月14日发射升空,作为星链互联网星座的组网卫星,它旨在为全球各个地区,尤其是偏远覆盖不足区域提供高速卫星互联网接入服务,延续了星链卫星批量部署、低轨运行的特点,助力SpaceX完成全球卫星互联网组网布局。

Basic Information
目录编号:
52602
目录名称:
STARLINK-4012
国际标识:
2022-052E
轨道中心:
EARTH
卫星名称:
星链-4012
卫星全名:
星链-4012 (STARLINK-4012 )
卫星状态:
在轨 (已飞行1447 天)
发射日期:
2022-05-14 UTC
国别 :
美国 (US)
星等 :
--
Orbit Information
数据来源 国际轨道数据 AOE轨道数据
星历时间 2026-04-30T20:41:58+0800
9小时前
查看轨道信息
2026-04-29T20:00:00+0800
1天前
查看轨道信息
半长轴 6917.855km 6917.825km
偏心率 0.0001801 0.0001573
轨道倾角 53.219° 53.218°
近地点辐角 96.536° 97.558°
升交点赤经 46.400° 51.024°
平近点角 263.584° 69.401°
近地点 538.472km 538.599km
远地点 540.964km 540.777km
周期 95.437分钟 95.436分钟
每日圈数 15.088486 15.088583
Detailed Information
固有亮度:
5
最大亮度:
2.5
卫星平台:
Starlink v1.5
覆盖范围:
全球
运营商:
太空探索技术公司
运营商所在国:
美国
制造商(研发单位):
太空探索技术公司
制造商所在国:
美国
使用方式:
暂无
Satellite Introduction
星链(Starlink)计划是由太空探索技术公司(SpaceX)提出的一个巨型低轨卫星互联网星座项目,计划在2019年至2024年间在太空搭建由约1.2万颗卫星组成的“星链”网络,其中1584颗将部署在地球上空550千米处的近地轨道,并从2020年开始工作。该卫星仍在工作。
2D Orbit Map
3D Orbit Map
Orbit Altitude Analysis Chart
Orbit Inclination Analysis Chart
Orbit Comprehensive Analysis Chart
View Comprehensive Chart